This demonstration page uses our WeatherBlox Daily Observations layout. Learn more.

39.01783, -85.05884

Hourly Observations for February 24, 2020

Temp ( °F °C ) Dew Point ( °F °C ) Humidity (%) Winds ( mph kmh ) Pressure ( in mb ) Visibility ( mi km ) Precip ( " mm )
12:52 am 00:52 Mostly Cloudy 40 4.4 27 -2.8 60 60 SSW 6 9 30.02 1017 10 16.0934 0 0
1:52 am 01:52 Partly Cloudy 38 3.3 27 -2.8 65 65 SSW 6 9 30.02 1017 10 16.0934 0 0
2:52 am 02:52 Cloudy 40 4.4 28 -2.2 63 63 SSW 5 7 30 1016 10 16.0934 0 0
3:52 am 03:52 Cloudy 36 2.2 28 -2.2 73 73 S 6 9 29.99 1016 10 16.0934 0 0
4:52 am 04:52 Cloudy 40 4.4 31 -0.6 70 70 S 5 7 29.97 1015 10 16.0934 0 0
5:52 am 05:52 Cloudy 41 5 32 0 70 70 S 6 9 29.97 1015 10 16.0934 0 0
6:17 am 06:17 Cloudy 41 5 32 0 70 70 S 6 9 30.01 1016 10 16.0934 0 0
6:52 am 06:52 Cloudy 41 5 33 0.6 73 73 S 6 9 29.98 1015 10 16.0934 0 0
7:52 am 07:52 Cloudy with Light Rain 41 5 35 1.7 79 79 S 7 11 29.98 1015 7 11.26538 0.02 0.508
8:13 am 08:13 Cloudy with Light Rain 41 5 36 2.2 82 82 SSW 8 13 30.02 1017 8 12.87472 0.001 0.001
8:52 am 08:52 Cloudy with Light Rain 41 5 38 3.3 89 89 S 8 13 30 1016 7 11.26538 0.02 0.508
9:34 am 09:34 Cloudy with Light Rain 41 5 38 3.3 89 89 S 8 13 30.02 1017 6 9.65604 0.02 0.508
9:52 am 09:52 Cloudy with Light Rain 41 5 39 3.9 93 93 S 10 17 29.99 1016 5 8.0467 0.06 1.524
10:52 am 10:52 Cloudy with Light Rain 42 5.6 39 3.9 89 89 S 8 13 29.96 1015 6 9.65604 0.05 1.27
11:03 am 11:03 Cloudy with Light Rain 42 5.6 39 3.9 89 89 S 7 11 29.99 1015 7 11.26538 0.01 0.254
11:40 am 11:40 Cloudy 43 6.1 40 4.4 89 89 SSE 10 17 29.96 1015 10 16.0934 0.02 0.508
11:52 am 11:52 Cloudy 44 6.7 39 3.9 83 83 SSE 12 19 29.94 1014 10 16.0934 0.02 0.508
12:32 pm 12:32 Cloudy with Light Rain 43 6.1 39 3.9 86 86 SSE 10 17 29.95 1014 5 8.0467 0.001 0.001
12:52 pm 12:52 Cloudy 44 6.7 41 5 89 89 SSE 10 17 29.91 1013 7 11.26538 0.001 0.001
1:43 pm 13:43 Cloudy 44 6.7 40 4.4 85 85 SSE 10 17 29.9 1013 10 16.0934 0 0
1:52 pm 13:52 Cloudy 44 6.7 40 4.4 85 85 SE 12 19 29.87 1012 10 16.0934 0 0
2:52 pm 14:52 Cloudy with Drizzle 44 6.7 39 3.9 83 83 SE 15 24 29.82 1010 4 6.43736 0.001 0.001
3:26 pm 15:26 Cloudy with Mist and Fog 44 6.7 40 4.4 85 85 SE 10 17 29.83 1010 5 8.0467 0.001 0.001
3:52 pm 15:52 Cloudy with Light Rain 44 6.7 40 4.4 85 85 SE 14 22 29.8 1009 2.5 4.02335 0.02 0.508
4:03 pm 16:03 Cloudy with Rain 43 6.1 40 4.4 89 89 SE 10 17 29.82 1010 4 6.43736 0.02 0.508
4:41 pm 16:41 Cloudy with Light Rain 43 6.1 40 4.4 89 89 ESE 10 17 29.8 1009 4 6.43736 0.05 1.27
4:52 pm 16:52 Cloudy with Rain 43 6.1 40 4.4 89 89 ESE 12 19 29.78 1008 2.5 4.02335 0.06 1.524
5:07 pm 17:07 Cloudy with Light Rain 43 6.1 40 4.4 89 89 ESE 14 22 29.79 1009 4 6.43736 0.02 0.508
5:45 pm 17:45 Cloudy with Light Rain 43 6.1 40 4.4 89 89 SE 10 17 29.79 1009 2.5 4.02335 0.04 1.016
5:52 pm 17:52 Cloudy with Light Rain 43 6.1 40 4.4 89 89 SE 12 19 29.76 1008 2.5 4.02335 0.04 1.016
6:01 pm 18:01 Cloudy with Light Rain 43 6.1 40 4.4 89 89 SE 16 26 29.78 1009 4 6.43736 0.001 0.001
6:52 pm 18:52 Cloudy with Light Rain 43 6.1 40 4.4 89 89 SE 9 15 29.77 1008 10 16.0934 0.02 0.508
7:52 pm 19:52 Cloudy with Light Rain 43 6.1 41 5 93 93 SE 8 13 29.77 1008 4 6.43736 0.01 0.254
8:15 pm 20:15 Cloudy with Drizzle 43 6.1 41 5 93 93 SE 9 15 29.77 1008 2.5 4.02335 0.01 0.254
8:52 pm 20:52 Cloudy with Light Rain 43 6.1 41 5 93 93 SE 8 13 29.74 1007 4 6.43736 0.01 0.254
9:43 pm 21:43 Cloudy with Rain 43 6.1 41 5 93 93 ESE 13 20 29.74 1007 4 6.43736 0.06 1.524
9:52 pm 21:52 Cloudy with Light Rain 43 6.1 41 5 93 93 ESE 12 19 29.72 1007 4 6.43736 0.09 2.286
10:07 pm 22:07 Cloudy with Light Rain 43 6.1 41 5 93 93 ESE 6 9 29.74 1007 6 9.65604 0.001 0.001
10:52 pm 22:52 Cloudy 43 6.1 41 5 93 93 SE 5 7 29.72 1007 7 11.26538 0.02 0.508
11:52 pm 23:52 Cloudy with Light Rain 43 6.1 42 5.6 97 97 ESE 6 9 29.71 1006 4 6.43736 0.001 0.001

Powered by AerisWeather